Regional Weather Roundup
Issued by NWS

Home | Current Version | Previous Version | Text Only | Print | Product List | Glossary Off
Versions: 1 2 3 4 5 6 7 8 9 10 11 12 13 14 15 16 17 18 19 20 21 22 23 24 25 26 27 28 29 30 31 32 33 34 35 36 37 38 39 40 41 42 43 44 45 46 47 48 49 50

000
ASUS43 KMPX 262101
RWRMN
WEATHER ROUNDUP FOR MINNESOTA
NATIONAL WEATHER SERVICE TWIN CITIES/CHANHASSEN MN
400 PM CDT SUN MAR 26 2017


NOTE: "FAIR" INDICATES FEW OR NO CLOUDS BELOW 12,000 FEET WITH NO
SIGNIFICANT WEATHER AND/OR OBSTRUCTIONS TO VISIBILITY. N/A MEANS
CURRENT SKY AND/OR WEATHER CONDITIONS ARE NOT AVAILABLE.

MNZ060>063-068>070-262200-
   Twin Cities Metro

CITY           SKY/WX    TMP DP  RH WIND       PRES   REMARKS
TWIN CITIES    CLOUDY    44  36  73 N6        29.90S
ST PAUL        CLOUDY    42  38  85 N8        29.91S
CRYSTAL        CLOUDY    43  34  70 NW6       29.90S
BLAINE         CLOUDY    45  39  81 CALM      29.90S
LAKEVILLE      CLOUDY    41  39  93 N5        29.89S
EDEN PRAIRIE   CLOUDY    44  36  73 N7        29.89S
SOUTH ST PAUL  CLOUDY    42  39  89 N6        29.90S
LAKE ELMO      CLOUDY    41  37  87 N3        29.91S
$$
MNZ001>005-007-008-013>017-022>024-027-028-262200-
   Northwest Minnesota

CITY           SKY/WX    TMP DP  RH WIND       PRES   REMARKS
BEMIDJI        MOSUNNY   47  33  57 W5        29.92F
HALLOCK          N/A     39  37  93 CALM      29.95S
ROSEAU         MOSUNNY   45  37  76 W5        29.95F
WARROAD        CLOUDY    43  37  81 W6        29.95S
THIEF RVR FALL CLOUDY   N/A N/A N/A NW6       29.96R
CROOKSTON      PTSUNNY   45  39  81 SW5       29.96S
FOSSTON        MOSUNNY   54  37  54 NW3       29.94F
DETROIT LAKES  PTSUNNY   46  36  66 NW8       29.94S
MOORHEAD       CLOUDY    43  37  81 CALM      29.97S
PARK RAPIDS    CLOUDY    46  31  55 NE5       29.91F
MAHNOMEN       CLOUDY    46  35  66 W6        29.94S
$$
MNZ006-009>011-018-025>026-262200-
   North Central Minnesota

CITY           SKY/WX    TMP DP  RH WIND       PRES   REMARKS
BAUDETTE       CLOUDY    47  34  60 VRB3      29.92F
FLAG ISLAND    MOSUNNY   36  32  87 S6        29.94F
INTL FALLS     CLOUDY    46  32  58 CALM      29.92F
WASKISH        CLOUDY    43  34  70 W7        29.94S
BIG FORK       MOSUNNY   46  32  57 CALM      29.91F
LONGVILLE      CLOUDY    45  32  61 CALM      29.92S
GRAND RAPIDS   CLOUDY    42  32  67 CALM      29.93F
CRANE LAKE     MOSUNNY   45  30  57 N5        29.93F
ORR            MOSUNNY   46  28  49 CALM      29.89F
COOK           CLOUDY    45  32  61 CALM      29.91F
WALKER         CLOUDY    42  32  67 S5        29.92F
$$
MNZ012-019>021-037-262200-
   Northeast Minnesota

CITY           SKY/WX    TMP DP  RH WIND       PRES   REMARKS
DULUTH         FOG       34  33  96 SE6       29.91S VSB 1/8 WCI  29
ELY            CLOUDY    37  30  75 CALM      29.91F
HIBBING        CLOUDY    40  32  73 CALM      29.91F
EVELETH        CLOUDY    40  31  69 NE3       29.92S
DULUTH HARBOR  CLOUDY    34  34 100 CALM      29.95F
TWO HARBORS    CLOUDY    37  32  81 E7        29.91S
SILVER BAY     LGT RAIN  36  34  93 CALM      29.91F
GRAND MARAIS     N/A     35  33  92 E3        29.94F
G MARAIS ARPRT DRIZZLE   32  28  86 N3        29.91S
$$
MNZ029>031-032-039>041-046>048-054>057-064-262200-
   West Central Minnesota

CITY           SKY/WX    TMP DP  RH WIND       PRES   REMARKS
FERGUS FALLS   CLOUDY    46  36  66 NW5       29.97S
WHEATON        CLOUDY    45  36  70 W7        29.96S
MORRIS         CLOUDY    48  37  66 NW3       29.92R
ALEXANDRIA     CLOUDY    47  35  63 NE5       29.92S
ELBOW LAKE     CLOUDY    45  36  71 CALM      29.93S
WADENA         CLOUDY    46  36  66 NE3       29.91S
GLENWOOD       CLOUDY    46  36  66 NE9       29.91S
APPLETON       PTSUNNY   48  36  61 CALM      29.92S
BENSON         CLOUDY    52  32  46 NE3       29.93S
MADISON        CLOUDY    46  39  76 NW3       29.94S
WILLMAR        CLOUDY    46  37  71 NE6       29.93S
$$
MNZ033>034-036-042>043-049>051-058-059-262200-
   Central Minnesota

CITY           SKY/WX    TMP DP  RH WIND       PRES   REMARKS
ST CLOUD       CLOUDY    40  37  89 N7        29.91S
SAUK CENTRE    CLOUDY    44  35  71 NE5       29.91S
PAYNESVILLE      N/A     41  39  90 N6        29.92S
AITKIN         CLOUDY    45  34  65 N7        29.90S
PINE RIVER     CLOUDY    45  34  65 NW3       29.95S
BRAINERD       CLOUDY    43  33  68 N5        29.92S
STAPLES        CLOUDY    45  32  61 CALM      29.91F
LONG PRAIRIE   CLOUDY    43  34  70 N6        29.91S
LITTLE FALLS   CLOUDY    41  32  70 N3        29.92S
LITCHFIELD     CLOUDY    43  37  81 N7        29.92S
BUFFALO        CLOUDY    41  35  79 N5        29.92S
MAPLE LAKE     CLOUDY    40  38  93 N3        29.92S
HUTCHINSON     CLOUDY    41  38  88 NE8       29.92S
$$
MNZ037-044-045-052-053-262200-
   East Central Minnesota

CITY           SKY/WX    TMP DP  RH WIND       PRES   REMARKS
PRINCETON      CLOUDY    41  36  81 N5        29.91S
MORA           LGT RAIN  37  34  87 CALM      29.93S
CAMBRIDGE      RAIN      41  37  87 N5        29.90S
RUSH CITY      CLOUDY    40  36  86 N6        29.91S
MOOSE LAKE     CLOUDY    36  32  87 NE3       29.91R
CLOQUET        CLOUDY    37  34  87 CALM      29.91S
MCGREGOR       CLOUDY    39  34  81 NW6       29.92S
$$
MNZ071>073-080-081-089-090-097-098-262200-
   Southwest Minnesota

CITY           SKY/WX    TMP DP  RH WIND       PRES   REMARKS
MONTEVIDEO     CLOUDY    46  37  71 E3        29.94F
GRANITE FALLS  CLOUDY    45  38  78 NW6       29.94S
CANBY          CLOUDY    43  39  85 CALM      29.95S
MARSHALL       CLOUDY    42  37  82 N9        29.93S
REDWOOD FALLS  CLOUDY    45  36  70 N5        29.91S
OLIVIA         CLOUDY    43  36  75 N6        29.91S
PIPESTONE      CLOUDY    43  36  75 N5        29.91F
WINDOM         PTSUNNY   43  37  81 NW8       29.91S
WORTHINGTON    CLOUDY    41  37  86 NW9       29.92S
JACKSON        CLOUDY    41  37  87 N5        29.91S
TRACY          CLOUDY    42  38  86 NW9       29.92S
SLAYTON        CLOUDY    39  37  90 N7        29.92F
$$
MNZ065>067-074>077-082>085-091>093-262200-
   South Central Minnesota

CITY           SKY/WX    TMP DP  RH WIND       PRES   REMARKS
MANKATO        CLOUDY    42  38  85 N7        29.91R
NEW ULM        CLOUDY    43  36  75 N5        29.91S
ST JAMES       CLOUDY    41  37  87 CALM      29.92S
FAIRMONT       CLOUDY    41  38  89 N9        29.91R
GLENCOE        CLOUDY    42  39  88 N7        29.90S
FARIBAULT      CLOUDY    41  39  93 NW6       29.90R
OWATONNA       CLOUDY    43  37  81 N7        29.89R
WASECA         CLOUDY    41  37  87 N8        29.90S FOG
ALBERT LEA     CLOUDY    41  39  93 N8        29.88R FOG
$$
MNZ078>079-086>088-094>096-262200-
   Southeast Minnesota

CITY           SKY/WX    TMP DP  RH WIND       PRES   REMARKS
ROCHESTER      CLOUDY    40  39  97 N9        29.87R
RED WING       CLOUDY    43  37  81 N3        29.89R
STANTON        CLOUDY    42  38  85 N7        29.88S
DODGE CENTER   CLOUDY    39  39 100 N8        29.87S
WINONA         CLOUDY    43  37  81 CALM      29.88S
AUSTIN         CLOUDY    43  39  87 N7        29.87S
PRESTON        CLOUDY    41  38  88 N8        29.86F
$$
ABBREVIATIONS USED IN REMARKS
   TC - TEMPERATURES IN CELSIUS
  WCI - WIND CHILL INDEX
   HX - HEAT INDEX
  VSB - VISIBILITY
$$




USA.gov is the U.S. government's official web portal to all federal, state and local government web resources and services.